Regional Weather Roundup
Issued by NWS

Home | Current Version | Previous Version | Graphics & Text | Print | Product List | Glossary On
Versions: 1 2 3 4 5 6 7 8 9 10 11 12 13 14 15 16 17 18 19 20 21 22 23 24 25 26 27 28 29 30 31 32 33 34 35 36 37 38 39 40 41 42 43 44 45 46 47 48 49 50
000
ASUS43 KFSD 221302
RWRSD

WEATHER ROUNDUP FOR SOUTH DAKOTA
NATIONAL WEATHER SERVICE SIOUX FALLS SD
800 AM CDT WED MAR 22 2017

NOTE: "FAIR" INDICATES FEW OR NO CLOUDS BELOW 12,000 FEET WITH NO
SIGNIFICANT WEATHER AND/OR OBSTRUCTIONS TO VISIBILITY.


SDZ001>005-009-010-012>017-221400-
NORTHWEST AND NORTH CENTRAL SOUTH DAKOTA

CITY           SKY/WX    TMP DP  RH WIND       PRES   REMARKS
BUFFALO          N/A     29  27  92 SE21G32   29.85F WCI  16
FAITH            N/A     28  26  92 SE31G39   30.00  WCI  12
MOBRIDGE       CLOUDY    29  20  69 SE21G29   30.15F WCI  16
$$

SDZ012>016-024>037-041>051-057-063-072>074-221400-
SOUTHWEST AND SOUTH CENTRAL SOUTH DAKOTA

CITY           SKY/WX    TMP DP  RH WIND       PRES   REMARKS
RAPID CTY ARPT CLEAR     33  31  92 S23       29.94F WCI  21
PIERRE         MIX PCPN  29  26  89 SE16      30.19F WCI  17
CUSTER         CLOUDY    28  25  88 SW3       29.95F
ELLSWORTH AFB  CLEAR     35  35 100 S24G37    29.87F WCI  22
PHILIP         CLOUDY    32  28  85 SE13G24   30.08F WCI  22
PINE RIDGE     CLOUDY    37  33  85 S21G35    30.01F
SPEARFISH      FAIR      25  27 100 S5        29.86F WCI  19
WINNER         PTSUNNY   32  28  85 SE20      30.22F WCI  20
$$

SDZ004>011-016>023-039-040-221400-
NORTHEAST SOUTH DAKOTA

CITY           SKY/WX    TMP DP  RH WIND       PRES   REMARKS
ABERDEEN       CLOUDY    27  16  63 SE16      30.34F WCI  15
WATERTOWN      CLOUDY    24  12  60 SE15      30.35F WCI  11
BROOKINGS      CLOUDY    25  14  63 SE13      30.38S WCI  14
SISSETON         N/A     23  16  74 S15       30.41F WCI  10
$$

SDZ017-020-022-023-036>040-048>070-221400-
SOUTHEAST SOUTH DAKOTA

CITY           SKY/WX    TMP DP  RH WIND       PRES   REMARKS
SIOUX FALLS    CLOUDY    28  16  60 SE12      30.41R WCI  18
HURON          CLOUDY    29  18  63 SE14      30.35S WCI  18
CHAMBERLAIN    MIX PCPN  31  27  87 E18       30.27F WCI  19
MITCHELL       CLOUDY    30  18  60 SE17      30.37R WCI  18
YANKTON        CLOUDY    28  18  64 SE17G24   30.38S WCI  16
$$

ABBREVIATIONS USED IN REMARKS
   TC - TEMPERATURE IN CELSIUS
  WCI - WIND CHILL INDEX
   HX - HEAT INDEX
  VSB - VISIBILITY





USA.gov is the U.S. government's official web portal to all federal, state and local government web resources and services.